User: anonymous   Login
Location: Unspecified
(0.0000°N, 0.0000°E)
Time: 17:56:49
(UTC+00:00)
Language:

Tiros 1 despin weight - Orbit

View from above orbital plane
View from above orbital plane
View from above satellite
View from above satellite

Ground track
Ground track

The orbit data is extracted from the following two-line orbital elements,

1   115U 60002D   20018.12220522 -.00000104  00000-0  14777-4 0  9998
2   115  48.1668 281.8950 0035162 302.0872  57.6628 14.83526689190505
Epoch (UTC): 18 January 2020 02:55:58
Eccentricity: 0.0035162
inclination: 48.1668°
perigee height: 593 km
apogee height: 643 km
right ascension of ascending node: 281.8950°
argument of perigee: 302.0872°
revolutions per day: 14.83526689
mean anomaly at epoch: 57.6628°
orbit number at epoch: 19050

The dashed part of the orbit path shows where the satellite is in the earth's shadow,  

DLR